METEOR 1-17 DEB

Satellite information

Favourite Embed

Satellite Type and Status

DEBRISIN ORBIT

Key statistics

Satellite METEOR 1-17 DEB at a glance.

Uptime

18757

Days in orbit

Revolutions

≈ 14.2

Per day

Orbit

LEO

Low Earth Orbit

Inclination

81.2

Latest

Satellite identification and parameters

Extended collection of information and parameters for METEOR 1-17 DEB.

Object identification

Identified? True

Debris? True

Object name: METEOR 1-17 DEB

International designator: 1974-025J

Object number (NORAD): 57543

Object ID (CCSDS): 57543

Country: COMMONWEALTH OF INDEPENDENT STATES (CIS)

Current information (Y/N): Y

RCS size: SMALL

Orbital parameters

Period: 101.474 minutes

Inclination: 81.2045 deg

SMA: 7206.594 km

Apoapsis: 839.395 km

Periapsis: 817.522 km

RAAN: 216.9031 deg

Eccentricy: 0.00151759

Argument of periapsis: 80.418 deg

Mean anomaly: 279.8709 deg

Mean motion: 14.19082732 rev/day

Mean motion (dot): 0.0000396 rev/day2

B* drag term: 0.0018872314 1/REarth

Two-line elements (TLE)

Creation date: Aug. 28, 2025, 11:13 p.m.

Reference frame: TEME

Reference center: EARTH

Epoch: Aug. 28, 2025, 6:23 a.m. UTC

TLE line 0: 0 METEOR 1-17 DEB

TLE line 1: 1 57543U 74025J 25240.26614588 .00003960 00000-0 18872-2 0 9991

TLE line 2: 2 57543 81.2045 216.9031 0015176 80.4180 279.8709 14.19082732115982

Live tracking on map

Real-time ground track for satellite METEOR 1-17 DEB.

In-orbit conjunctions

A list of the most updated potential collisions computed for object METEOR 1-17 DEB.

Target Orbit TCA Probability of collision Miss distance Type
NOAA 7 SSO 2025-04-17 06:29:31 0.0001048313 423.0 (m) PAYLOAD
NOAA 7 SSO 2025-04-17 04:47:54 0.0004020784 181.0 (m) PAYLOAD
CZ-6A DEB LEO 2024-11-21 23:10:16 0.0001064152 878.0 (m) DEBRIS
THOR BURNER 2 R/B SSO 2024-08-05 12:19:19 0.0009578397 118.0 (m) ROCKET BODY

Associated space launch

The Meteor-1 series was the first series of Soviet meteorological satellites.

METEOR 1-17 DEB was lifted into orbit during the mission ‘Vostok 8A92M | Meteor-1 17 (22L)’, on board a Vostok 8A92M space rocket.

The launch took place on April 24, 1974, 11:50 a.m. from 43/4 (43R).

For more information about the launch, click the button.

Launch to space Vostok 8A92M | Meteor-1 17 (22L)
Vostok 8A92M | Meteor-1 17 (22L)

Agency: N/A

Status: Launch Successful

Launch date: April 24, 1974, 11:50 a.m. UTC

Rocket: Vostok 8A92M

Launch pad: 43/4 (43R)

Location: Plesetsk Cosmodrome, Russian Federation

...

Latest news about this satellite

There are no fresh news available about this satellite. Check back as we update our databases every day.


Newsletter sign-up

Weekly statistics, charts and insights to help you stay on top of the space industry.